Parkland Airport

CPL6 · Alberta, Kanada

METAR-Geschichte CPL6 · Parkland Airport

Unten siehst du die METARs der letzten paar Tage. Wähle ein Jahr, um ältere METARs ab dem Jahr 2007 zu durchsuchen.

27. November 2022

Uhrzeit Code Wetter Temp. Sichtweite Wolkendecke Wind METAR/SPECI
22:14
V
-9 °C 9 mi 4.500 ft 320° 320° 19 - 26 kt SPECI CZVL 280514Z AUTO 32019G26KT 9SM -SN FEW029 BKN045 BKN055 M09/M13 A2977 RMK SLP126

28. November 2022

Uhrzeit Code Wetter Temp. Sichtweite Wolkendecke Wind METAR/SPECI
00:00
I
-10 °C 3 mi 3.600 ft 320° 320° 19 - 28 kt METAR CZVL 280700Z AUTO 32019G28KT 3SM -SN OVC036 M10/M12 A2980 RMK SLP133

27. November 2022

Uhrzeit Code Wetter Temp. Sichtweite Wolkendecke Wind METAR/SPECI
23:01
V
-9 °C 5 mi 3.800 ft 310° 310° 17 - 27 kt METAR CZVL 280601Z AUTO 31017G27KT 5SM -SN OVC038 M09/M12 A2978 RMK SLP133
22:14
V
-9 °C 9 mi 4.500 ft 320° 320° 19 - 26 kt METAR CZVL 280514Z AUTO 32019G26KT 9SM -SN FEW029 BKN045 BKN055 M09/M13 A2977 RMK SLP126
22:00
V
-9 °C 9 mi 4.300 ft 310° 310° 21 - 26 kt METAR CZVL 280500Z AUTO 31021G26KT 9SM BKN043 M09/M13 A2976 RMK SLP116
21:00
V
-8 °C 9 mi 3.100 ft 310° 310° 19 - 28 kt METAR CZVL 280400Z AUTO 31019G28KT 9SM OVC031 M08/M13 A2974 RMK SLP110
20:00
V
-8 °C 9 mi 3.100 ft 320° 320° 22 kt METAR CZVL 280300Z AUTO 32022KT 9SM FEW025 BKN031 OVC050 M08/M13 A2973 RMK SLP104
19:00
V
-7 °C 9 mi 4.200 ft 330° 330° 21 - 28 kt METAR CZVL 280200Z AUTO 33021G28KT 9SM OVC042 M07/M12 A2970 RMK SLP093
18:32
V
-7 °C 9 mi 3.100 ft 330° 330° 23 - 31 kt METAR CZVL 280132Z AUTO 33023G31KT 9SM BKN031 OVC040 M07/M12 A2968 RMK SLP091
18:00
V
-6 °C 9 mi 3.300 ft 320° 320° 21 - 26 kt METAR CZVL 280100Z AUTO 32021G26KT 9SM -SN OVC033 M06/M10 A2966 RMK SLP078
17:35
V
-6 °C 9 mi 3.300 ft 320° 320° 17 - 22 kt METAR CZVL 280035Z AUTO 32017G22KT 9SM -SN OVC033 M06/M11 A2964 RMK SLP077
17:00
V
-5 °C 9 mi 3.300 ft 310° 310° 14 - 27 kt METAR CZVL 280000Z AUTO 31014G27KT 9SM OVC033 M05/M11 A2963 RMK SLP067
16:00
V
-5 °C 9 mi 3.300 ft 320° 320° 15 - 24 kt METAR CZVL 272300Z AUTO 32015G24KT 9SM BKN033 BKN110 M05/M10 A2958 RMK SLP051
15:00
V
-4 °C 9 mi - 310° 310° 15 - 27 kt METAR CZVL 272200Z AUTO 31015G27KT 9SM FEW035 M04/M10 A2955 RMK SLP036
14:00
V
-2 °C 9 mi - 310° 310° 17 - 23 kt METAR CZVL 272100Z AUTO 31017G23KT 9SM FEW035 M02/M09 A2951 RMK SLP022
13:00
V
-1 °C 9 mi 12.000 ft 300° 300° 17 - 24 kt METAR CZVL 272000Z AUTO 30017G24KT 9SM BKN120 M01/M07 A2949 RMK SLP013
12:00
V
0 °C 9 mi - 310° 310° 12 - 25 kt METAR CZVL 271900Z AUTO 31012G25KT 9SM SCT120 M00/M08 A2949 RMK SLP012
11:00
V
0 °C 9 mi 10.000 ft 320° 320° 18 kt METAR CZVL 271800Z AUTO 32018KT 9SM BKN100 BKN120 00/M09 A2946 RMK SLP003
10:00
V
0 °C 9 mi 9.600 ft 310° 310° 12 - 20 kt METAR CZVL 271700Z AUTO 31012G20KT 9SM BKN096 BKN110 M00/M08 A2945 RMK SLP000
09:00
V
0 °C 9 mi 10.000 ft 310° 310° 13 - 20 kt METAR CZVL 271600Z AUTO 31013G20KT 9SM SCT039 OVC100 00/M07 A2944 RMK SLP994
08:00
V
0 °C 9 mi 10.000 ft 290° 290° 11 kt METAR CZVL 271500Z AUTO 29011KT 9SM OVC100 00/M05 A2942 RMK SLP990
07:00
V
0 °C 9 mi 10.000 ft 290° 290° 9 kt METAR CZVL 271400Z AUTO 29009KT 9SM BKN100 BKN120 OVC200 00/M03 A2940 RMK SLP982
06:00
V
0 °C 9 mi - 300° 300° 9 kt METAR CZVL 271300Z AUTO 30009KT 9SM SCT086 00/M04 A2938 RMK SLP974
05:00
V
1 °C 9 mi - 280° 280° 6 kt METAR CZVL 271200Z AUTO 28006KT 9SM FEW130 01/M06 A2937 RMK SLP971
04:00
V
1 °C 9 mi 18.000 ft 290° 290° 4 kt METAR CZVL 271100Z AUTO 29004KT 9SM SCT091 BKN180 01/M06 A2937 RMK SLP971
03:00
V
2 °C 9 mi 11.000 ft 280° 280° 4 kt METAR CZVL 271000Z AUTO 28004KT 220V310 9SM OVC110 02/M05 A2938 RMK SLP972
02:00
V
3 °C 9 mi 11.000 ft 210° 210° 9 kt METAR CZVL 270900Z AUTO 21009KT 9SM OVC110 03/M06 A2937 RMK SLP968
01:00
V
3 °C 9 mi 11.000 ft 210° 210° 9 kt METAR CZVL 270800Z AUTO 21009KT 9SM OVC110 03/M05 A2938 RMK SLP972
00:00
V
2 °C 9 mi 11.000 ft 200° 200° 9 kt METAR CZVL 270700Z AUTO 20009KT 9SM SCT096 OVC110 02/M05 A2939 RMK SLP977

26. November 2022

Uhrzeit Code Wetter Temp. Sichtweite Wolkendecke Wind METAR/SPECI
23:00
V
3 °C 9 mi 9.100 ft 210° 210° 10 kt METAR CZVL 270600Z AUTO 21010KT 9SM OVC091 03/M05 A2943 RMK SLP990
22:00
V
4 °C 9 mi 9.100 ft 190° 190° 9 kt METAR CZVL 270500Z AUTO 19009KT 9SM BKN091 BKN110 04/M05 A2945 RMK SLP998
21:00
V
4 °C 9 mi 9.100 ft 240° 240° 12 - 18 kt METAR CZVL 270400Z AUTO 24012G18KT 9SM BKN091 OVC120 04/M06 A2948 RMK SLP011
20:00
V
2 °C 9 mi 10.000 ft 190° 190° 12 kt METAR CZVL 270300Z AUTO 19012KT 9SM BKN100 BKN120 02/M05 A2951 RMK PRESFR SLP023
19:00
V
2 °C 9 mi - 200° 200° 13 kt METAR CZVL 270200Z AUTO 20013KT 9SM FEW100 SCT120 02/M04 A2956 RMK SLP036
18:00
V
3 °C 9 mi 9.100 ft 200° 200° 13 kt METAR CZVL 270100Z AUTO 20013KT 9SM BKN091 OVC110 03/M04 A2958 RMK SLP045
17:00
V
3 °C 9 mi 8.600 ft 190° 190° 11 - 16 kt METAR CZVL 270000Z AUTO 19011G16KT 9SM OVC086 03/M04 A2963 RMK SLP060
16:00
V
4 °C 9 mi 8.100 ft 210° 210° 12 kt METAR CZVL 262300Z AUTO 21012KT 9SM OVC081 04/M05 A2967 RMK SLP072
15:00
V
3 °C 9 mi 9.100 ft 210° 210° 10 kt METAR CZVL 262200Z AUTO 21010KT 9SM BKN091 BKN120 03/M05 A2969 RMK SLP083
14:00
V
3 °C 9 mi - 220° 220° 12 kt METAR CZVL 262100Z AUTO 22012KT 9SM CLR 03/M05 A2972 RMK SLP091
13:00
V
2 °C 9 mi - 200° 200° 11 kt METAR CZVL 262000Z AUTO 20011KT 9SM CLR 02/M05 A2974 RMK SLP100
12:00
V
3 °C 9 mi 9.100 ft 210° 210° 10 kt METAR CZVL 261900Z AUTO 21010KT 9SM BKN091 03/M05 A2978 RMK SLP110
11:00
V
1 °C 9 mi - 200° 200° 6 kt METAR CZVL 261800Z AUTO 20006KT 9SM CLR 01/M06 A2981 RMK SLP126
10:00
V
0 °C 9 mi - 210° 210° 7 kt METAR CZVL 261700Z AUTO 21007KT 9SM FEW240 M00/M06 A2982 RMK SLP129
09:00
V
-1 °C 9 mi 19.000 ft 210° 210° 8 kt METAR CZVL 261600Z AUTO 21008KT 9SM SCT170 BKN190 M01/M07 A2984 RMK SLP135
08:00
V
-1 °C 9 mi - 220° 220° 5 kt METAR CZVL 261500Z AUTO 22005KT 9SM SCT066 M01/M06 A2985 RMK SLP139
07:00
V
1 °C 9 mi 7.600 ft 210° 210° 9 kt METAR CZVL 261400Z AUTO 21009KT 9SM OVC076 01/M06 A2985 RMK SLP138
06:00
V
0 °C 9 mi 8.600 ft 230° 230° 10 kt METAR CZVL 261300Z AUTO 23010KT 9SM OVC086 00/M06 A2985 RMK SLP138
05:00
V
-1 °C 9 mi 8.100 ft 200° 200° 7 kt METAR CZVL 261200Z AUTO 20007KT 9SM OVC081 M01/M05 A2985 RMK SLP140
04:00
V
1 °C 9 mi 7.600 ft 260° 260° 6 kt METAR CZVL 261100Z AUTO 26006KT 9SM OVC076 01/M06 A2986 RMK SLP139
03:00
V
-2 °C 9 mi - 240° 240° 6 kt METAR CZVL 261000Z AUTO 24006KT 9SM CLR M02/M07 A2986 RMK SLP142
02:00
V
1 °C 9 mi - 260° 260° 7 kt METAR CZVL 260900Z AUTO 26007KT 9SM CLR 01/M06 A2984 RMK SLP132
01:00
V
1 °C 9 mi 7.100 ft 270° 270° 7 kt METAR CZVL 260800Z AUTO 27007KT 9SM OVC071 01/M05 A2984 RMK SLP131
00:00
V
2 °C 9 mi 7.600 ft 270° 270° 10 - 15 kt METAR CZVL 260700Z AUTO 27010G15KT 9SM FEW050 OVC076 02/M06 A2983 RMK SLP128

25. November 2022

Uhrzeit Code Wetter Temp. Sichtweite Wolkendecke Wind METAR/SPECI
23:00
V
1 °C 9 mi 7.600 ft 270° 270° 8 kt METAR CZVL 260600Z AUTO 27008KT 9SM BKN076 01/M06 A2981 RMK SLP124
22:00
V
2 °C 9 mi 12.000 ft 280° 280° 11 - 16 kt METAR CZVL 260500Z AUTO 28011G16KT 9SM OVC120 02/M06 A2979 RMK SLP117
21:00
V
2 °C 9 mi - 270° 270° 12 kt METAR CZVL 260400Z AUTO 27012KT 9SM CLR 02/M06 A2976 RMK SLP109
20:00
V
1 °C 9 mi - 270° 270° 9 kt METAR CZVL 260300Z AUTO 27009KT 9SM CLR 01/M05 A2975 RMK SLP106
19:00
V
1 °C 9 mi - 280° 280° 7 kt METAR CZVL 260200Z AUTO 28007KT 9SM CLR 01/M04 A2974 RMK SLP101
18:00
V
1 °C 9 mi - 240° 240° 7 kt METAR CZVL 260100Z AUTO 24007KT 9SM SCT170 01/M03 A2973 RMK SLP101
17:00
V
2 °C 9 mi 22.000 ft 270° 270° 5 kt METAR CZVL 260000Z AUTO 27005KT 9SM BKN220 BKN240 02/M03 A2972 RMK SLP097
16:00
V
3 °C 9 mi - 300° 300° 8 - 17 kt METAR CZVL 252300Z AUTO 30008G17KT 9SM FEW140 03/M02 A2971 RMK SLP089
15:00
V
3 °C 9 mi - 280° 280° 5 kt METAR CZVL 252200Z AUTO 28005KT 240V320 9SM SCT120 03/00 A2970 RMK SLP086
14:00
V
4 °C 9 mi 10.000 ft 280° 280° 11 - 17 kt METAR CZVL 252100Z AUTO 28011G17KT 9SM BKN100 04/01 A2969 RMK SLP080
13:00
V
3 °C 9 mi - 270° 270° 3 kt METAR CZVL 252000Z AUTO 27003KT 9SM FEW091 03/03 A2968 RMK SLP078
12:00
V
2 °C 9 mi - Var Var 2 kt METAR CZVL 251900Z AUTO VRB02KT 9SM FEW071 02/02 A2970 RMK PCPN 0.5MM PAST HR SLP086
11:41
V
1 °C 9 mi 7.100 ft Var 000° 0 kt METAR CZVL 251841Z AUTO 00000KT 9SM SCT031 BKN071 01/01 A2970 RMK PRESFR PCPN 0.5MM PAST HR SLP087
11:16
M
1 °C 9 mi 2.700 ft 300° 300° 4 kt METAR CZVL 251816Z AUTO 30004KT 9SM -RA SCT020 OVC027 01/01 A2973 RMK SLP097
11:06
M
1 °C 9 mi 2.700 ft 300° 300° 4 kt METAR CZVL 251806Z AUTO 30004KT 9SM -RA -UP OVC027 01/01 A2973 RMK SLP095
10:33
V
1 °C 9 mi 4.200 ft 340° 340° 14 kt METAR CZVL 251733Z AUTO 34014KT 280V350 9SM -RA SCT025 SCT030 OVC042 01/01 A2971 RMK PRESRR SLP090
10:00
V
2 °C 9 mi 4.800 ft 280° 280° 4 kt METAR CZVL 251700Z AUTO 28004KT 9SM -RA FEW036 BKN048 OVC055 02/01 A2968 RMK SLP080
09:43
V
1 °C 9 mi 5.500 ft 300° 300° 4 kt METAR CZVL 251643Z AUTO 30004KT 9SM -RA SCT036 OVC055 01/00 A2969 RMK SLP081
09:37
V
0 °C 9 mi 5.500 ft 290° 290° 3 kt METAR CZVL 251637Z AUTO 29003KT 260V330 9SM -SNRA FEW038 OVC055 00/00 A2968 RMK SLP080
09:34
V
0 °C 9 mi 6.000 ft 310° 310° 3 kt METAR CZVL 251634Z AUTO 31003KT 260V330 9SM -SN FEW038 OVC060 00/00 A2968 RMK SLP080
09:02
V
-2 °C 6 mi 7.600 ft 270° 270° 3 kt METAR CZVL 251602Z AUTO 27003KT 250V350 6SM BR BKN076 OVC092 M02/M02 A2967 RMK SLP079
09:00
M
-2 °C 4 mi 8.800 ft 270° 270° 3 kt METAR CZVL 251600Z AUTO 27003KT 250V350 4SM BR FEW071 OVC088 M02/M02 A2967 RMK SLP079
08:39
V
-2 °C 5 mi 9.100 ft Var 000° 0 kt METAR CZVL 251539Z AUTO 00000KT 5SM BR OVC091 M02/M03 A2966 RMK SLP078
08:00
V
-2 °C 9 mi 7.600 ft 020° 020° 3 kt METAR CZVL 251500Z AUTO 02003KT 330V030 9SM OVC076 M02/M02 A2964 RMK SLP068
07:00
V
-2 °C 9 mi - 300° 300° 5 kt METAR CZVL 251400Z AUTO 30005KT 9SM FEW091 SCT180 M02/M03 A2966 RMK SLP071
06:00
V
-5 °C 9 mi - 320° 320° 3 kt METAR CZVL 251300Z AUTO 32003KT 9SM CLR M05/M05 A2967 RMK SLP076
05:00
V
-4 °C 9 mi - Var 000° 0 kt METAR CZVL 251200Z AUTO 00000KT 9SM CLR M04/M05 A2968 RMK SLP077
04:00
V
-1 °C 9 mi - 340° 340° 4 kt METAR CZVL 251100Z AUTO 34004KT 300V360 9SM CLR M01/M03 A2971 RMK SLP085
03:00
V
0 °C 9 mi - 290° 290° 5 kt METAR CZVL 251000Z AUTO 29005KT 9SM CLR M00/M03 A2974 RMK SLP092

Wir und Dritte verfolgen dein Internetverhalten auf unserer Website mit Cookies. Wenn du fortfährst, gehen wir davon aus, dass du mit unserer Cookie-Richtlinie einverstanden bist.